This is the latest recevied weather packets stored in our database for station/object KB5DPX. If no packets are shown the sender has not sent any weather packets the latest 10 day(s).
| Time | Temp. | Humidity | Pressure | Rain* | Wind** | Luminosity | Snow |
|---|---|---|---|---|---|---|---|
| 1778069565 | 2.78° C | 77% | 1012.3 hPa | 0 mm | - | 320 W/m² | - |
| 1778069250 | 2.22° C | 80% | 1012.3 hPa | 0 mm | - | 301 W/m² | - |
| 1778068968 | 2.22° C | 83% | 1012.3 hPa | 0 mm | - | 285 W/m² | - |
| 1778068646 | 1.67° C | 83% | 1012.3 hPa | 0 mm | - | 269 W/m² | - |
| 1778068359 | 1.67° C | 85% | 1012.3 hPa | 0 mm | - | 251 W/m² | - |
| 1778068059 | 1.11° C | 87% | 1012.2 hPa | 0 mm | - | 234 W/m² | - |
| 1778067762 | 1.11° C | 88% | 1012.2 hPa | 0 mm | - | 218 W/m² | - |
| 1778067466 | 0.56° C | 89% | 1012.3 hPa | 0 mm | - | 209 W/m² | - |
| 1778067142 | 0° C | 89% | 1012.2 hPa | 0 mm | - | 188 W/m² | - |
| 1778066848 | 0° C | 89% | 1012 hPa | 0 mm | - | 178 W/m² | - |
| 1778066561 | -0.56° C | 88% | 1011.9 hPa | 0 mm | - | 169 W/m² | - |
| 1778066246 | -1.11° C | 88% | 1011.8 hPa | 0 mm | - | 151 W/m² | - |
| 1778065960 | -1.11° C | 88% | 1011.8 hPa | 0 mm | - | 100 W/m² | - |
| 1778065660 | -1.11° C | 88% | 1011.8 hPa | 0 mm | - | 28 W/m² | - |
| 1778065366 | -1.11° C | 89% | 1011.8 hPa | 0 mm | - | 26 W/m² | - |
| 1778065064 | -1.11° C | 89% | 1011.7 hPa | 0 mm | - | 23 W/m² | - |
| 1778064749 | -1.11° C | 89% | 1011.7 hPa | 0 mm | - | 19 W/m² | - |
| 1778064461 | -1.11° C | 89% | 1011.7 hPa | 0 mm | - | 16 W/m² | - |
| 1778064146 | -1.11° C | 89% | 1011.7 hPa | 0 mm | - | 14 W/m² | - |
| 1778063858 | -1.11° C | 89% | 1011.6 hPa | 0 mm | - | 11 W/m² | - |
| 1778063557 | -1.11° C | 89% | 1011.6 hPa | 0 mm | - | 9 W/m² | - |
| 1778063253 | -1.11° C | 89% | 1011.6 hPa | 0 mm | - | 7 W/m² | - |
| 1778062957 | -1.11° C | 89% | 1011.6 hPa | 0 mm | - | 5 W/m² | - |
| 1778062660 | -1.11° C | 88% | 1011.5 hPa | 0 mm | - | 0 W/m² | - |
| 1778062342 | -0.56° C | 88% | 1011.6 hPa | 0 mm | - | 0 W/m² | - |
* Rain latest hour (hover to see other rain measurements)
** Current wind speed in m/s (hover to see current wind gust speed)